Weather History for North Adams, MA

Change the Weather History Date:

Wednesday, July 17, 2013

  Actual Average Record
Temperature  
Mean Temperature 78 °F -  
Max Temperature 91 °F 77 °F 93 °F (2012)
Min Temperature 64 °F 55 °F 52 °F (2002)
Cooling Degree Days 12    
Growing Degree Days 28 (Base 50)    
Moisture  
Dew Point 65 °F    
Average Humidity 68    
Maximum Humidity 97    
Minimum Humidity 39    
Precipitation  
Precipitation 0.00 in - - ()
Sea Level Pressure  
Sea Level Pressure 30.15 in    
Wind  
Wind Speed 1 mph (WNW)    
Max Wind Speed 7 mph    
Max Gust Speed -    
Visibility 9 miles    
Events      
Averages and records for this station are not official NWS values.
T = Trace of Precipitation, MM = Missing Value Source: NWS Daily Summary

Daily Weather History Graph

Daily Weather History Graph

Search for Another Location

Airport:

Trip Planner

Search our weather history database for the weather conditions in past years. The results will help you decide how hot, cold, wet, or windy it might be!

Date:

Astronomy

Jul. 17, 2013 Rise Set
Actual Time 5:30 AM EDT 8:27 PM EDT
Civil Twilight 4:56 AM EDT 9:00 PM EDT
Nautical Twilight 4:13 AM EDT 9:43 PM EDT
Astronomical Twilight 3:23 AM EDT 10:33 PM EDT
Moon 3:11 PM EDT (7/17) 12:38 AM EDT (7/17)
Length of Visible Light 16h 04m
Length of Day
14h 57m
Waxing Gibbous, 67% of the Moon is Illuminated
Jul 17
Waxing Gibbous
Jul 22
Full
Jul 29
Last Quarter
Aug 6
New
Aug 14
First Quarter

Hourly Weather History & Observations

Time (EDT) Temp. Heat Index Dew Point Humidity Pressure Visibility Wind Dir Wind Speed Gust Speed Precip Events Conditions
12:52 AM 68.0 °F - 66.0 °F 93% 30.20 in 6.0 mi Calm Calm - N/A   Clear
1:52 AM 66.9 °F - 64.9 °F 93% 30.21 in 8.0 mi Calm Calm - N/A   Clear
2:52 AM 64.9 °F - 64.0 °F 97% 30.19 in 4.0 mi Calm Calm - N/A   Clear
3:52 AM 64.9 °F - 64.0 °F 97% 30.20 in 5.0 mi Calm Calm - N/A   Clear
4:52 AM 64.0 °F - 62.1 °F 93% 30.21 in 5.0 mi Calm Calm - N/A   Clear
5:52 AM 64.0 °F - 62.1 °F 93% 30.22 in 3.0 mi Calm Calm - N/A   Clear
6:52 AM 66.9 °F - 64.9 °F 93% 30.22 in 7.0 mi Calm Calm - N/A   Clear
7:52 AM 71.1 °F - 64.9 °F 81% 30.23 in 10.0 mi Calm Calm - N/A   Clear
8:42 AM 75.2 °F - 64.4 °F 69% 30.23 in 10.0 mi Calm Calm - N/A   Partly Cloudy
8:52 AM 75.0 °F - 64.9 °F 71% 30.23 in 10.0 mi Calm Calm - N/A   Partly Cloudy
9:52 AM 80.1 °F 81.7 °F 64.0 °F 58% 30.21 in 10.0 mi Calm Calm - N/A   Clear
10:52 AM 84.0 °F 85.8 °F 64.9 °F 53% 30.19 in 10.0 mi Calm Calm - N/A   Clear
11:52 AM 87.1 °F 89.2 °F 66.0 °F 49% 30.17 in 10.0 mi North 4.6 mph - N/A   Partly Cloudy
12:52 PM 90.0 °F 90.3 °F 62.1 °F 39% 30.16 in 10.0 mi Variable 4.6 mph - N/A   Clear
1:52 PM 89.1 °F 90.0 °F 63.0 °F 42% 30.14 in 10.0 mi Calm Calm - N/A   Scattered Clouds
2:52 PM 91.0 °F 92.6 °F 64.0 °F 41% 30.12 in 10.0 mi Variable 3.5 mph - N/A   Partly Cloudy
3:52 PM 90.0 °F 90.3 °F 62.1 °F 39% 30.09 in 10.0 mi Variable 4.6 mph - N/A   Clear
4:52 PM 90.0 °F 90.6 °F 63.0 °F 40% 30.08 in 10.0 mi West 6.9 mph - N/A   Clear
5:52 PM 89.1 °F 91.0 °F 64.9 °F 45% 30.04 in 10.0 mi Variable 3.5 mph - N/A   Clear
6:52 PM 87.1 °F 89.2 °F 66.0 °F 49% 30.06 in 10.0 mi West 5.8 mph - N/A   Partly Cloudy
7:52 PM 82.9 °F 85.4 °F 66.9 °F 58% 30.04 in 10.0 mi Calm Calm - N/A   Clear
8:52 PM 79.0 °F - 69.1 °F 72% 30.05 in 10.0 mi Calm Calm - N/A   Mostly Cloudy
9:52 PM 79.0 °F - 69.1 °F 72% 30.05 in 10.0 mi Variable 3.5 mph - N/A   Overcast
10:52 PM 77.0 °F - 69.1 °F 76% 30.04 in 10.0 mi Calm Calm - N/A   Clear
11:52 PM 75.0 °F - 71.1 °F 87% 30.05 in 9.0 mi Calm Calm - N/A   Clear